[[{"header":{"parameterUnit":"m.s-1","parameterCategory":1,"la1":30.2992,"la2":30.254,"lo1":-89.0895,"lo2":-89.0443,"dy":0.0025,"dx":0.0025,"nx":19,"ny":19,"refTime":"2026-03-08T21:00:00:Z","depth":0,"parameterNumber":2,"parameterNumberName":"U-component_of_WINDS"},"data":[0,0,0,1.2573,1.2577,1.2773,1.2774,1.3014,1.3016,0,0,0,0,0,0,0,0,0,0,0,1.2505,1.2506,1.2573,1.2577,1.2773,1.2774,1.3014,1.3016,0,0,0,0,0,0,0,0,0,0,0,1.2505,1.2506,1.2508,1.2578,1.2773,1.2774,1.3013,1.287,0,0,0,0,0,0,0,0,0,0,1.2682,1.2608,1.2506,1.2508,1.2579,1.2773,1.2775,1.2863,1.2879,1.2919,0,1.295,0,1.2986,1.3031,1.3032,0,0,0,1.2586,1.2595,1.2657,1.2508,1.2581,1.2773,1.2687,1.2872,1.289,1.294,1.2953,1.2963,1.299,1.3032,1.3034,1.3231,1.3232,0,0,1.2575,1.2536,1.2644,1.2667,1.2633,1.2681,1.2693,1.2883,1.2896,1.2954,1.2969,1.2994,1.3034,1.3036,1.3231,1.3231,0,0,0,1.2538,1.2528,1.2585,1.2657,1.2693,1.2686,1.2701,1.2888,1.291,1.2971,1.2997,1.3035,1.3038,1.323,1.3231,1.3217,0,0,0,1.2532,1.2507,1.258,1.2558,1.2689,1.2792,1.2701,1.2897,1.2919,1.2996,1.3035,1.304,1.323,1.3231,1.3216,1.3217,0,0,0,1.2496,1.2502,1.2527,1.2556,1.2638,1.279,1.2823,1.2902,1.2935,1.3032,1.3041,1.3229,1.323,1.3216,1.3216,1.3257,0,0,0,1.2447,1.2514,1.2526,1.2612,1.2636,1.2779,1.2822,1.2932,1.3014,1.3036,1.323,1.3231,1.3215,1.3216,1.3256,1.3283,1.329,0,0,1.251,1.252,1.2574,1.2591,1.2721,1.2753,1.2883,1.2997,1.3044,1.3167,1.3172,1.3217,1.3216,1.3257,1.3349,1.3355,0,0,0,1.2581,1.2619,1.2662,1.2736,1.2823,1.2898,1.2995,1.3038,1.3143,1.3098,1.3244,1.3245,1.3271,1.3285,1.329,1.3314,1.3236,1.3236,1.3236,1.2615,1.2669,1.2761,1.2838,1.291,1.3009,1.3074,1.3148,1.3184,1.3217,1.3254,1.3303,1.3319,1.3323,1.3347,1.3274,1.3273,1.3273,1.3273,1.2712,1.2774,1.2818,1.2922,1.298,1.307,1.3169,1.3191,1.3284,1.328,1.3305,1.3295,1.3327,1.3351,1.3273,1.3273,1.3273,1.3273,1.3273,1.2739,1.2778,1.2826,1.2939,1.3021,1.3099,1.3185,1.3236,1.3285,1.331,1.3353,1.3354,1.3359,1.3327,1.3327,1.3327,1.3327,1.3327,1.3328,1.2747,1.2802,1.2868,1.2965,1.3019,1.3097,1.3198,1.3254,1.3329,1.3359,1.3359,1.3391,1.332,1.33,1.333,1.333,1.333,1.3329,1.3329,1.2823,1.2814,1.2914,1.2968,1.3087,1.3164,1.3228,1.3337,1.3391,1.3432,1.3459,1.3398,1.3414,1.341,1.3394,1.3447,1.3447,1.3447,1.3447,1.2845,1.2857,1.2971,1.3054,1.3142,1.3209,1.3323,1.3402,1.3484,1.3521,1.3521,1.3505,1.3499,1.3517,1.3512,1.3497,1.3576,1.3576,1.3576,1.2895,1.2917,1.3003,1.308,1.3176,1.3258,1.3367,1.3463,1.3554,1.3582,1.3551,1.3545,1.352,1.3508,1.3534,1.3524,1.3499,0,0]},{"header":{"parameterUnit":"m.s-1","parameterCategory":1,"la1":30.2992,"la2":30.254,"lo1":-89.0895,"lo2":-89.0443,"dy":0.0025,"dx":0.0025,"nx":19,"ny":19,"refTime":"2026-03-08T21:00:00:Z","depth":0,"parameterNumber":3,"parameterNumberName":"V-component_of_WINDS"},"data":[0,0,0,2.5266,2.5265,2.5233,2.5233,2.518,2.5179,0,0,0,0,0,0,0,0,0,0,0,2.5272,2.5271,2.5266,2.5265,2.5233,2.5233,2.518,2.5179,0,0,0,0,0,0,0,0,0,0,0,2.5272,2.5271,2.5271,2.5265,2.5233,2.5233,2.518,2.5208,0,0,0,0,0,0,0,0,0,0,2.5241,2.5244,2.5271,2.5271,2.5265,2.5233,2.5233,2.5209,2.5206,2.5191,0,2.5179,0,2.5179,2.5175,2.5175,0,0,0,2.5267,2.5246,2.5241,2.5271,2.5264,2.5233,2.5248,2.5208,2.5204,2.5186,2.5179,2.5177,2.5178,2.5175,2.5175,2.5086,2.5086,0,0,2.5268,2.5263,2.5244,2.5239,2.5247,2.5249,2.5247,2.5205,2.5195,2.5178,2.5176,2.5177,2.5175,2.5174,2.5087,2.5086,0,0,0,2.5272,2.5264,2.526,2.5241,2.5236,2.5248,2.5245,2.5197,2.5196,2.5175,2.5176,2.5174,2.5174,2.5087,2.5087,2.5056,0,0,0,2.5273,2.5267,2.5261,2.5258,2.5237,2.5217,2.5238,2.5199,2.5195,2.5177,2.5174,2.5173,2.5088,2.5087,2.5058,2.5041,0,0,0,2.5275,2.5267,2.5262,2.5257,2.5244,2.5218,2.5215,2.5198,2.5195,2.5175,2.5173,2.5088,2.5087,2.506,2.5045,2.5014,0,0,0,2.5274,2.5235,2.5261,2.5218,2.5244,2.5201,2.5215,2.5183,2.5162,2.5174,2.5088,2.5087,2.5061,2.5046,2.5016,2.4986,2.4974,0,0,2.5222,2.5229,2.5203,2.5226,2.5177,2.5206,2.5151,2.5136,2.5138,2.5102,2.51,2.5058,2.5045,2.5015,2.4914,2.4904,0,0,0,2.5185,2.5166,2.5155,2.5136,2.5125,2.5112,2.5107,2.5101,2.5071,2.512,2.504,2.5033,2.5015,2.5001,2.4993,2.4976,2.5081,2.5081,2.5081,2.5101,2.5107,2.5065,2.5066,2.5047,2.5042,2.5025,2.5016,2.5027,2.5007,2.4996,2.4934,2.4917,2.4911,2.4894,2.4983,2.4983,2.4983,2.4983,2.5022,2.4995,2.5011,2.4975,2.498,2.4949,2.4941,2.4949,2.4918,2.4944,2.4929,2.4954,2.4901,2.4885,2.4981,2.4981,2.4981,2.4981,2.4982,2.4965,2.4953,2.4948,2.4921,2.4898,2.49,2.4869,2.4875,2.488,2.4865,2.4851,2.4852,2.485,2.4859,2.4859,2.4859,2.4859,2.4858,2.4858,2.4907,2.4902,2.4878,2.4862,2.485,2.4834,2.4827,2.4813,2.4799,2.4805,2.4805,2.4815,2.4896,2.4914,2.4855,2.4855,2.4856,2.4856,2.4856,2.4818,2.4839,2.4801,2.4789,2.4769,2.4744,2.4753,2.4725,2.4714,2.4698,2.4711,2.4772,2.4778,2.4785,2.4799,2.4713,2.4713,2.4713,2.4713,2.4767,2.4773,2.4733,2.4713,2.4693,2.4697,2.4648,2.4641,2.4636,2.4629,2.4643,2.4664,2.4671,2.4673,2.4682,2.4695,2.4585,2.4585,2.4584,2.4712,2.4715,2.4674,2.4673,2.4658,2.4644,2.4597,2.4568,2.4568,2.4579,2.4622,2.4628,2.4662,2.4674,2.4683,2.4697,2.4723,0,0]}]]